Regional Weather Roundup
Issued by NWS

Home | Current Version | Previous Version | Graphics & Text | Print | Product List | Glossary On
Versions: 1 2 3 4 5 6 7 8 9 10 11 12 13 14 15 16 17 18 19 20 21 22 23 24 25 26 27 28 29 30 31 32 33 34 35 36 37 38 39 40 41 42 43 44 45 46 47 48 49 50
434
ASUS43 KBIS 271702
RWRND

NORTH DAKOTA REGIONAL WEATHER ROUNDUP
NATIONAL WEATHER SERVICE BISMARCK ND
1200 PM CDT THU APR 27 2017

NOTE: "FAIR" INDICATES FEW OR NO CLOUDS BELOW 12,000 FEET WITH NO
SIGNIFICANT WEATHER AND/OR OBSTRUCTIONS TO VISIBILITY.


NDZ001>003-009>011-017-271800-
NORTHWEST NORTH DAKOTA

CITY           SKY/WX    TMP DP  RH WIND       PRES   REMARKS
WILLISTON      FAIR      45  22  40 E13       29.75F
MINOT          FAIR      43  14  31 N9        29.76F
MINOT AFB      SUNNY     42  13  31 N12G17    29.75F
$$

NDZ018>021-031>035-040>046-271800-
SOUTHWEST NORTH DAKOTA

CITY           SKY/WX    TMP DP  RH WIND       PRES   REMARKS
BISMARCK       FAIR      44  22  41 NE9       29.74S
DICKINSON      FAIR      40  25  55 NE9       29.69S
GARRISON       NOT AVBL
HETTINGER ARPT CLOUDY    35  26  69 E10       29.71S
$$

NDZ004>008-012>016-024-026-027-054-271800-
NORTHEAST NORTH DAKOTA

CITY           SKY/WX    TMP DP  RH WIND       PRES   REMARKS
GRAND FORKS    MOSUNNY   34  24  67 N15       29.70F
GRND FRKS AFB  MOSUNNY   34  21  58 N15       29.70F
DEVILS LAKE    FAIR      39  23  52 N18       29.72S
$$

NDZ022-023-025-028>030-036>039-047>053-271800-
SOUTHEAST NORTH DAKOTA

CITY           SKY/WX    TMP DP  RH WIND       PRES   REMARKS
FARGO          CLOUDY    31  23  72 N15       29.70R
JAMESTOWN      FAIR      40  27  59 N15G23    29.70S
$$





USA.gov is the U.S. government's official web portal to all federal, state and local government web resources and services.